Location: Gorrie
(43.8742°N, 81.1087°W)
Time: 02:22:43
(UTC+00:00)

Cosmos 2278 - Pass Details

Date: 09 December 2025
Orbit: 840 x 849 km, 71.1° (Epoch: 17 January)

Event Time Altitude Azimuth Distance (km) Brightness Sun altitude
Exits shadow 10:43:33 17° 344° (NNW) 2,003 5.4 -21.4°
Maximum altitude 10:47:53 63° 62° (ENE) 939 4.1 -20.7°
Drops below altitude 10° 10:53:28 10° 143° (SE) 2,450 6.8 -19.7°
Sets 10:55:55 0° 147° (SSE) 3,380 7.6 -19.3°
